Regional Weather Roundup
Issued by NWS Melbourne, FL

Current Version | Previous Version | Text Only | Print | Product List | Glossary On
Versions: 1 2 3 4 5 6 7 8 9 10 11 12 13 14 15 16 17 18 19 20 21 22 23 24 25 26 27
000
ASUS42 KMLB 300511
RWRMLB
HOURLY WEATHER ROUNDUP AROUND FLORIDA
NATIONAL WEATHER SERVICE OFFICE MELBOURNE FL
100 AM EDT THU MAR 30 2017

CITY           SKY/WX    TMP DP  RH WIND       PRES   REMARKS
MELBOURNE      CLEAR     71  66  84 SW6       30.04F
FORT PIERCE    CLEAR     64  63  96 CALM      30.03F
ORLANDO INTL   MOCLDY    73  58  59 SE5       30.03F
DAYTONA BEACH  CLEAR     71  63  76 CALM      30.05S
VERO BEACH     CLEAR     67  64  90 CALM      30.03F
$$
...ELSEWHERE ACROSS CENTRAL FLORIDA...

CITY           SKY/WX    TMP DP  RH WIND       PRES   REMARKS
PATRICK AFB    CLEAR     73  69  86 S7        30.02F
KSC            CLEAR     67  65  94 W5        30.02S
CAPE CANAVERAL CLEAR     70  65  85 S6        30.01F
ORLANDO EXEC   CLEAR     72  58  61 S5        30.03F
LEESBURG       MOCLDY    72  61  68 NW3       30.03S
THE VILLAGES     N/A     66  59  77 CALM      29.93F
SANFORD        CLEAR     72  59  63 S6        30.03F
DELAND         CLEAR     66  61  82 E3        30.02F
WINTER HAVEN   CLEAR     71  62  73 N6        30.03F
KISSIMMEE      CLEAR     74  61  63 E3        30.04F
OKEECHOBEE     CLOUDY   N/A N/A N/A CALM      30.04F
TAMPA          PTCLDY    73  65  75 NE3       30.03F
$$
...NORTHERN FLORIDA...

CITY           SKY/WX    TMP DP  RH WIND       PRES   REMARKS
ST AUGUSTINE   PTCLDY    68  62  81 CALM      30.03F
OCALA          PTCLDY    63  52  67 CALM      30.03F
GAINESVILLE    CLEAR     64  53  67 CALM      30.02F
JACKSONVILLE   CLOUDY    70  65  84 E6        30.02S
TALLAHASSEE    CLEAR     62  56  80 CALM      29.98F
$$
...ALONG THE SOUTHEAST COAST TO THE KEYS...

CITY           SKY/WX    TMP DP  RH WIND       PRES   REMARKS
STUART         CLEAR     72  64  78 S3        30.05S
WEST PALM BCH  PTCLDY    72  63  73 SE5       30.04F
MIAMI          CLEAR     74  64  71 E6        30.02F
KEY WEST       PTCLDY    76  66  71 E10       30.01F
$$
...MARINE REPORTS...

STATION/POSITION TIME  TEMP    WIND        PRES    WAVE   SWELL
                       AIR SEA DIR/SP/G            HT/PER HT/PER
                 (UTC) (F)     (DEG/KT/KT) (MB)    (FT/S) (FT/S)
ST AUGUSTINE FP  0500   70 68  170/  5/  6 1017.4F
17NM ENE CAPE CA 0430      76                N/A     4/10   2/10
TRIDENT PIER     0448   73 75  160/  6/  8 1017.9F
4NM E PORT CANAV 0451      73                N/A     2/10   2/11
6NM NE FPR INLET 0430      75                N/A     3/11   2/11
SETTLEMENT PT GB 0500   75     100/  8/ 10 1017.4F
$$




USA.gov is the U.S. government's official web portal to all federal, state and local government web resources and services.